COSMOS 793

Satellite information

Favourite Embed

Satellite Type and Status

PAYLOADIN ORBIT

Key statistics

Satellite COSMOS 793 at a glance.

Uptime

18220

Days in orbit

Revolutions

≈ 12.5

Per day

Orbit

LEO

Low Earth Orbit

Inclination

74.1

Latest

Satellite identification and parameters

Extended collection of information and parameters for COSMOS 793.

Object identification

Identified? True

Debris? False

Object name: COSMOS 793

International designator: 1976-008C

Object number (NORAD): 8609

Object ID (CCSDS): 8609

Country: COMMONWEALTH OF INDEPENDENT STATES (CIS)

Current information (Y/N): Y

RCS size: MEDIUM

Orbital parameters

Period: 114.957 minutes

Inclination: 74.0537 deg

SMA: 7831.596 km

Apoapsis: 1490.439 km

Periapsis: 1416.482 km

RAAN: 127.2563 deg

Eccentricy: 0.00472173

Argument of periapsis: 278.5715 deg

Mean anomaly: 200.0935 deg

Mean motion: 12.52643206 rev/day

Mean motion (dot): -0.00000009 rev/day2

B* drag term: 0.000047512157 1/REarth

Two-line elements (TLE)

Creation date: Dec. 16, 2025, 2:19 a.m.

Reference frame: TEME

Reference center: EARTH

Epoch: Dec. 15, 2025, 8:38 p.m. UTC

TLE line 0: 0 COSMOS 793

TLE line 1: 1 08609U 76008C 25349.85982264 -.00000009 00000-0 47512-4 0 9994

TLE line 2: 2 08609 74.0537 127.2563 0047217 278.5715 200.0935 12.52643206280980

Live tracking on map

Real-time ground track for satellite COSMOS 793.

In-orbit conjunctions

There are no conjunctions computed for COSMOS 793, at the moment. Check back to stay up to date, as we update our databases every day.

Go to all conjunctions

Associated space launch

Military communications satellites

COSMOS 793 was lifted into orbit during the mission ‘Kosmos-3M | Strela-1M 105-112’, on board a Kosmos-3M space rocket.

The launch took place on Jan. 28, 1976, 10:39 a.m. from 132/1 (132L).

For more information about the launch, click the button.

Launch to space Kosmos-3M | Strela-1M 105-112
Kosmos-3M | Strela-1M 105-112

Agency: N/A

Status: Launch Successful

Launch date: Jan. 28, 1976, 10:39 a.m. UTC

Rocket: Kosmos-3M

Launch pad: 132/1 (132L)

Location: Plesetsk Cosmodrome, Russian Federation

...

Latest news about this satellite

There are no fresh news available about this satellite. Check back as we update our databases every day.


Newsletter sign-up

Weekly statistics, charts and insights to help you stay on top of the space industry.